Location: *
(37.5724°S, 58.0067°E)
Time: 10:15:05
(UTC+00:00)

H-2A ROCKET BODY - Pass Details

Date: 19 January 2021
Orbit: 216 x 15031 km, 28.6° (Epoch: 07 March)

Event Time Altitude Azimuth Distance (km) Brightness Sun altitude
Rises 14:43:47 0° 31° (NNE) 10,610 7.3 7.5°
Reaches altitude 10° 15:16:15 10° 61° (ENE) 15,153 7.9 1.5°
Maximum altitude 16:06:23 13° 82° (E) 18,851 8.5 -7.2°
Drops below altitude 10° 16:53:29 10° 97° (E) 18,854 8.6 -14.7°
Sets 17:30:04 0° 108° (ESE) 16,915 8.6 -19.9°
